Year,Month,Day,Hour,Minute,Value (Times are PST for temperature in C)
2010,09,14,00,00,12.20
2010,09,14,00,01,12.10
2010,09,14,00,02,12.10
2010,09,14,00,03,12.10
2010,09,14,00,04,12.10
2010,09,14,00,05,12.10
2010,09,14,00,06,12.10
2010,09,14,00,07,12.00
2010,09,14,00,08,12.00
2010,09,14,00,09,12.00
2010,09,14,00,10,12.00
2010,09,14,00,11,11.90
2010,09,14,00,12,11.90
2010,09,14,00,13,11.90
2010,09,14,00,14,11.90
2010,09,14,00,15,11.90
2010,09,14,00,16,11.80
2010,09,14,00,17,11.80
2010,09,14,00,18,11.80
2010,09,14,00,19,11.80
2010,09,14,00,20,11.80
2010,09,14,00,21,11.80
2010,09,14,00,22,11.80
2010,09,14,00,23,11.80
2010,09,14,00,24,11.80
2010,09,14,00,25,11.80
2010,09,14,00,26,11.80
2010,09,14,00,27,11.70
2010,09,14,00,28,11.70
2010,09,14,00,29,11.70
2010,09,14,00,30,11.60
2010,09,14,00,31,11.60
2010,09,14,00,32,11.60
2010,09,14,00,33,11.60
2010,09,14,00,34,11.60
2010,09,14,00,35,11.60
2010,09,14,00,36,11.60
2010,09,14,00,37,11.60
2010,09,14,00,38,11.60
2010,09,14,00,39,11.40
2010,09,14,00,40,11.40
2010,09,14,00,41,11.40
2010,09,14,00,42,11.40
2010,09,14,00,43,11.40
2010,09,14,00,44,11.40
2010,09,14,00,45,11.40
2010,09,14,00,46,11.40
2010,09,14,00,47,11.30
2010,09,14,00,48,11.30
2010,09,14,00,49,11.30
2010,09,14,00,50,11.30
2010,09,14,00,51,11.30
2010,09,14,00,52,11.30
2010,09,14,00,53,11.20
2010,09,14,00,54,11.20
2010,09,14,00,55,11.30
2010,09,14,00,56,11.30
2010,09,14,00,57,11.30
2010,09,14,00,58,11.30
2010,09,14,00,59,11.30
2010,09,14,01,00,11.30
2010,09,14,01,01,11.30
2010,09,14,01,02,11.30
2010,09,14,01,03,11.20
2010,09,14,01,04,11.20
2010,09,14,01,05,11.20
2010,09,14,01,06,11.20
2010,09,14,01,07,11.20
2010,09,14,01,08,11.10
2010,09,14,01,09,11.10
2010,09,14,01,10,11.10
2010,09,14,01,11,11.10
2010,09,14,01,12,11.10
2010,09,14,01,13,11.10
2010,09,14,01,14,11.10
2010,09,14,01,15,11.10
2010,09,14,01,16,11.20
2010,09,14,01,17,11.20
2010,09,14,01,18,11.30
2010,09,14,01,19,11.30
2010,09,14,01,20,11.40
2010,09,14,01,21,11.40
2010,09,14,01,22,11.50
2010,09,14,01,23,11.60
2010,09,14,01,24,11.60
2010,09,14,01,25,11.60
2010,09,14,01,26,11.60
2010,09,14,01,27,11.70
2010,09,14,01,28,11.70
2010,09,14,01,29,11.80
2010,09,14,01,30,11.80
2010,09,14,01,31,11.80
2010,09,14,01,32,11.90
2010,09,14,01,33,11.90
2010,09,14,01,34,12.00
2010,09,14,01,35,12.00
2010,09,14,01,36,12.00
2010,09,14,01,37,12.00
2010,09,14,01,38,12.00
2010,09,14,01,39,12.00
2010,09,14,01,40,12.00
2010,09,14,01,41,12.00
2010,09,14,01,42,12.00
2010,09,14,01,43,11.90
2010,09,14,01,44,11.90
2010,09,14,01,45,11.90
2010,09,14,01,46,11.90
2010,09,14,01,47,11.90
2010,09,14,01,48,11.90
2010,09,14,01,49,11.90
2010,09,14,01,50,11.90
2010,09,14,01,51,11.80
2010,09,14,01,52,11.80
2010,09,14,01,53,11.80
2010,09,14,01,54,11.80
2010,09,14,01,55,11.80
2010,09,14,01,56,11.80
2010,09,14,01,57,11.80
2010,09,14,01,58,11.80
2010,09,14,01,59,11.80
2010,09,14,02,00,11.70
2010,09,14,02,01,11.70
2010,09,14,02,02,11.70
2010,09,14,02,03,11.70
2010,09,14,02,04,11.70
2010,09,14,02,05,11.60
2010,09,14,02,06,11.60
2010,09,14,02,07,11.60
2010,09,14,02,08,11.60
2010,09,14,02,09,11.60
2010,09,14,02,10,11.60
2010,09,14,02,11,11.60
2010,09,14,02,12,11.50
2010,09,14,02,13,11.40
2010,09,14,02,14,11.40
2010,09,14,02,15,11.40
2010,09,14,02,16,11.40
2010,09,14,02,17,11.40
2010,09,14,02,18,11.40
2010,09,14,02,19,11.40
2010,09,14,02,20,11.40
2010,09,14,02,21,11.40
2010,09,14,02,22,11.30
2010,09,14,02,23,11.30
2010,09,14,02,24,11.30
2010,09,14,02,25,11.20
2010,09,14,02,26,11.20
2010,09,14,02,27,11.20
2010,09,14,02,28,11.20
2010,09,14,02,29,11.10
2010,09,14,02,30,11.10
2010,09,14,02,31,11.10
2010,09,14,02,32,11.10
2010,09,14,02,33,11.10
2010,09,14,02,34,11.10
2010,09,14,02,35,11.10
2010,09,14,02,36,11.10
2010,09,14,02,37,11.10
2010,09,14,02,38,11.10
2010,09,14,02,39,11.10
2010,09,14,02,40,11.10
2010,09,14,02,41,11.10
2010,09,14,02,42,11.10
2010,09,14,02,43,11.10
2010,09,14,02,44,11.10
2010,09,14,02,45,11.10
2010,09,14,02,46,11.10
2010,09,14,02,47,11.10
2010,09,14,02,48,11.10
2010,09,14,02,49,11.10
2010,09,14,02,50,11.00
2010,09,14,02,51,10.90
2010,09,14,02,52,10.90
2010,09,14,02,53,10.90
2010,09,14,02,54,10.90
2010,09,14,02,55,10.90
2010,09,14,02,56,10.90
2010,09,14,02,57,10.90
2010,09,14,02,58,10.90
2010,09,14,02,59,10.90
2010,09,14,03,00,10.90
2010,09,14,03,01,10.90
2010,09,14,03,02,10.90
2010,09,14,03,03,10.90
2010,09,14,03,04,10.90
2010,09,14,03,05,10.90
2010,09,14,03,06,10.90
2010,09,14,03,07,10.80
2010,09,14,03,08,10.80
2010,09,14,03,09,10.80
2010,09,14,03,10,10.80
2010,09,14,03,11,10.90
2010,09,14,03,12,10.90
2010,09,14,03,13,10.90
2010,09,14,03,14,10.80
2010,09,14,03,15,10.80
2010,09,14,03,16,10.70
2010,09,14,03,17,10.70
2010,09,14,03,18,10.70
2010,09,14,03,19,10.60
2010,09,14,03,20,10.60
2010,09,14,03,21,10.60
2010,09,14,03,22,10.60
2010,09,14,03,23,10.60
2010,09,14,03,24,10.60
2010,09,14,03,25,10.60
2010,09,14,03,26,10.50
2010,09,14,03,27,10.40
2010,09,14,03,28,10.40
2010,09,14,03,29,10.50
2010,09,14,03,30,10.60
2010,09,14,03,31,10.60
2010,09,14,03,32,10.60
2010,09,14,03,33,10.60
2010,09,14,03,34,10.60
2010,09,14,03,35,10.60
2010,09,14,03,36,10.60
2010,09,14,03,37,10.60
2010,09,14,03,38,10.60
2010,09,14,03,39,10.60
2010,09,14,03,40,10.50
2010,09,14,03,41,10.40
2010,09,14,03,42,10.40
2010,09,14,03,43,10.40
2010,09,14,03,44,10.40
2010,09,14,03,45,10.40
2010,09,14,03,46,10.40
2010,09,14,03,47,10.40
2010,09,14,03,48,10.40
2010,09,14,03,49,10.40
2010,09,14,03,50,10.40
2010,09,14,03,51,10.40
2010,09,14,03,52,10.40
2010,09,14,03,53,10.40
2010,09,14,03,54,10.40
2010,09,14,03,55,10.40
2010,09,14,03,56,10.40
2010,09,14,03,57,10.30
2010,09,14,03,58,10.30
2010,09,14,03,59,10.30
2010,09,14,04,00,10.30
2010,09,14,04,01,10.30
2010,09,14,04,02,10.30
2010,09,14,04,03,10.30
2010,09,14,04,04,10.30
2010,09,14,04,05,10.20
2010,09,14,04,06,10.20
2010,09,14,04,07,10.20
2010,09,14,04,08,10.20
2010,09,14,04,09,10.20
2010,09,14,04,10,10.20
2010,09,14,04,11,10.20
2010,09,14,04,12,10.20
2010,09,14,04,13,10.10
2010,09,14,04,14,10.10
2010,09,14,04,15,10.10
2010,09,14,04,16,10.10
2010,09,14,04,17,10.10
2010,09,14,04,18,10.10
2010,09,14,04,19,10.10
2010,09,14,04,20,10.10
2010,09,14,04,21,10.10
2010,09,14,04,22,10.10
2010,09,14,04,23,10.10
2010,09,14,04,24,10.10
2010,09,14,04,25,10.10
2010,09,14,04,26,10.10
2010,09,14,04,27,10.20
2010,09,14,04,28,10.20
2010,09,14,04,29,10.20
2010,09,14,04,30,10.20
2010,09,14,04,31,10.20
2010,09,14,04,32,10.10
2010,09,14,04,33,10.10
2010,09,14,04,34,10.10
2010,09,14,04,35,10.10
2010,09,14,04,36,10.10
2010,09,14,04,37,10.10
2010,09,14,04,38,10.10
2010,09,14,04,39,10.10
2010,09,14,04,40,10.10
2010,09,14,04,41,10.10
2010,09,14,04,42,10.10
2010,09,14,04,43,10.10
2010,09,14,04,44,10.10
2010,09,14,04,45,10.20
2010,09,14,04,46,10.20
2010,09,14,04,47,10.20
2010,09,14,04,48,10.20
2010,09,14,04,49,10.20
2010,09,14,04,50,10.30
2010,09,14,04,51,10.30
2010,09,14,04,52,10.30
2010,09,14,04,53,10.40
2010,09,14,04,54,10.40
2010,09,14,04,55,10.40
2010,09,14,04,56,10.40
2010,09,14,04,57,10.40
2010,09,14,04,58,10.40
2010,09,14,04,59,10.40
2010,09,14,05,00,10.40
2010,09,14,05,01,10.30
2010,09,14,05,02,10.30
2010,09,14,05,03,10.30
2010,09,14,05,04,10.20
2010,09,14,05,05,10.20
2010,09,14,05,06,10.10
2010,09,14,05,07,10.10
2010,09,14,05,08,10.10
2010,09,14,05,09,10.10
2010,09,14,05,10,10.00
2010,09,14,05,11,9.90
2010,09,14,05,12,9.90
2010,09,14,05,13,9.90
2010,09,14,05,14,9.90
2010,09,14,05,15,9.90
2010,09,14,05,16,9.90
2010,09,14,05,17,9.90
2010,09,14,05,18,9.80
2010,09,14,05,19,9.80
2010,09,14,05,20,9.80
2010,09,14,05,21,9.80
2010,09,14,05,22,9.80
2010,09,14,05,23,9.80
2010,09,14,05,24,9.80
2010,09,14,05,25,9.80
2010,09,14,05,26,9.80
2010,09,14,05,27,9.80
2010,09,14,05,28,9.80
2010,09,14,05,29,9.70
2010,09,14,05,30,9.70
2010,09,14,05,31,9.70
2010,09,14,05,32,9.70
2010,09,14,05,33,9.70
2010,09,14,05,34,9.70
2010,09,14,05,35,9.70
2010,09,14,05,36,9.70
2010,09,14,05,37,9.60
2010,09,14,05,38,9.60
2010,09,14,05,39,9.60
2010,09,14,05,40,9.60
2010,09,14,05,41,9.60
2010,09,14,05,42,9.50
2010,09,14,05,43,9.50
2010,09,14,05,44,9.50
2010,09,14,05,45,9.50
2010,09,14,05,46,9.50
2010,09,14,05,47,9.50
2010,09,14,05,48,9.50
2010,09,14,05,49,9.50
2010,09,14,05,50,9.50
2010,09,14,05,51,9.50
2010,09,14,05,52,9.50
2010,09,14,05,53,9.50
2010,09,14,05,54,9.50
2010,09,14,05,55,9.50
2010,09,14,05,56,9.50
2010,09,14,05,57,9.50
2010,09,14,05,58,9.50
2010,09,14,05,59,9.50
2010,09,14,06,00,9.50
2010,09,14,06,01,9.50
2010,09,14,06,02,9.50
2010,09,14,06,03,9.40
2010,09,14,06,04,9.40
2010,09,14,06,05,9.40
2010,09,14,06,06,9.40
2010,09,14,06,07,9.30
2010,09,14,06,08,9.30
2010,09,14,06,09,9.30
2010,09,14,06,10,9.20
2010,09,14,06,11,9.20
2010,09,14,06,12,9.20
2010,09,14,06,13,9.20
2010,09,14,06,14,9.20
2010,09,14,06,15,9.20
2010,09,14,06,16,9.20
2010,09,14,06,17,9.20
2010,09,14,06,18,9.20
2010,09,14,06,19,9.20
2010,09,14,06,20,9.20
2010,09,14,06,21,9.30
2010,09,14,06,22,9.30
2010,09,14,06,23,9.30
2010,09,14,06,24,9.30
2010,09,14,06,25,9.30
2010,09,14,06,26,9.30
2010,09,14,06,27,9.30
2010,09,14,06,28,9.30
2010,09,14,06,29,9.30
2010,09,14,06,30,9.30
2010,09,14,06,31,9.30
2010,09,14,06,32,9.30
2010,09,14,06,33,9.40
2010,09,14,06,34,9.40
2010,09,14,06,35,9.40
2010,09,14,06,36,9.40
2010,09,14,06,37,9.40
2010,09,14,06,38,9.40
2010,09,14,06,39,9.40
2010,09,14,06,40,9.50
2010,09,14,06,41,9.50
2010,09,14,06,42,9.50
2010,09,14,06,43,9.50
2010,09,14,06,44,9.50
2010,09,14,06,45,9.50
2010,09,14,06,46,9.50
2010,09,14,06,47,9.50
2010,09,14,06,48,9.40
2010,09,14,06,49,9.40
2010,09,14,06,50,9.40
2010,09,14,06,51,9.40
2010,09,14,06,52,9.40
2010,09,14,06,53,9.40
2010,09,14,06,54,9.30
2010,09,14,06,55,9.30
2010,09,14,06,56,9.30
2010,09,14,06,57,9.30
2010,09,14,06,58,9.30
2010,09,14,06,59,9.30
2010,09,14,07,00,9.30
2010,09,14,07,01,9.30
2010,09,14,07,02,9.20
2010,09,14,07,03,9.20
2010,09,14,07,04,9.20
2010,09,14,07,05,9.20
2010,09,14,07,06,9.20
2010,09,14,07,07,9.20
2010,09,14,07,08,9.30
2010,09,14,07,09,9.30
2010,09,14,07,10,9.30
2010,09,14,07,11,9.30
2010,09,14,07,12,9.40
2010,09,14,07,13,9.40
2010,09,14,07,14,9.40
2010,09,14,07,15,9.40
2010,09,14,07,16,9.50
2010,09,14,07,17,9.50
2010,09,14,07,18,9.50
2010,09,14,07,19,9.50
2010,09,14,07,20,9.60
2010,09,14,07,21,9.60
2010,09,14,07,22,9.60
2010,09,14,07,23,9.60
2010,09,14,07,24,9.60
2010,09,14,07,25,9.60
2010,09,14,07,26,9.60
2010,09,14,07,27,9.60
2010,09,14,07,28,9.60
2010,09,14,07,29,9.60
2010,09,14,07,30,9.60
2010,09,14,07,31,9.60
2010,09,14,07,32,9.60
2010,09,14,07,33,9.70
2010,09,14,07,34,9.70
2010,09,14,07,35,9.70
2010,09,14,07,36,9.70
2010,09,14,07,37,9.70
2010,09,14,07,38,9.70
2010,09,14,07,39,9.70
2010,09,14,07,40,9.70
2010,09,14,07,41,9.70
2010,09,14,07,42,9.80
2010,09,14,07,43,9.80
2010,09,14,07,44,9.80
2010,09,14,07,45,9.80
2010,09,14,07,46,9.90
2010,09,14,07,47,9.90
2010,09,14,07,48,9.90
2010,09,14,07,49,9.90
2010,09,14,07,50,9.90
2010,09,14,07,51,10.00
2010,09,14,07,52,10.10
2010,09,14,07,53,10.10
2010,09,14,07,54,10.10
2010,09,14,07,55,10.20
2010,09,14,07,56,10.20
2010,09,14,07,57,10.30
2010,09,14,07,58,10.30
2010,09,14,07,59,10.40
2010,09,14,08,00,10.40
2010,09,14,08,01,10.40
2010,09,14,08,02,10.50
2010,09,14,08,03,10.60
2010,09,14,08,04,10.60
2010,09,14,08,05,10.60
2010,09,14,08,06,10.70
2010,09,14,08,07,10.80
2010,09,14,08,08,10.90
2010,09,14,08,09,10.90
2010,09,14,08,10,11.00
2010,09,14,08,11,11.10
2010,09,14,08,12,11.10
2010,09,14,08,13,11.20
2010,09,14,08,14,11.20
2010,09,14,08,15,11.30
2010,09,14,08,16,11.30
2010,09,14,08,17,11.40
2010,09,14,08,18,11.40
2010,09,14,08,19,11.50
2010,09,14,08,20,11.60
2010,09,14,08,21,11.60
2010,09,14,08,22,11.80
2010,09,14,08,23,11.80
2010,09,14,08,24,12.00
2010,09,14,08,25,12.10
2010,09,14,08,26,12.20
2010,09,14,08,27,12.30
2010,09,14,08,28,12.30
2010,09,14,08,29,12.30
2010,09,14,08,30,12.30
2010,09,14,08,31,12.30
2010,09,14,08,32,12.40
2010,09,14,08,33,12.40
2010,09,14,08,34,12.40
2010,09,14,08,35,12.40
2010,09,14,08,36,12.50
2010,09,14,08,37,12.50
2010,09,14,08,38,12.60
2010,09,14,08,39,12.70
2010,09,14,08,40,12.80
2010,09,14,08,41,12.80
2010,09,14,08,42,12.80
2010,09,14,08,43,12.90
2010,09,14,08,44,12.90
2010,09,14,08,45,13.00
2010,09,14,08,46,13.10
2010,09,14,08,47,13.20
2010,09,14,08,48,13.20
2010,09,14,08,49,13.20
2010,09,14,08,50,13.30
2010,09,14,08,51,13.30
2010,09,14,08,52,13.20
2010,09,14,08,53,13.10
2010,09,14,08,54,13.20
2010,09,14,08,55,13.30
2010,09,14,08,56,13.30
2010,09,14,08,57,13.30
2010,09,14,08,58,13.40
2010,09,14,08,59,13.50
2010,09,14,09,00,13.60
2010,09,14,09,01,13.60
2010,09,14,09,02,13.60
2010,09,14,09,03,13.70
2010,09,14,09,04,13.70
2010,09,14,09,05,13.80
2010,09,14,09,06,13.80
2010,09,14,09,07,13.90
2010,09,14,09,08,13.90
2010,09,14,09,09,13.70
2010,09,14,09,10,13.40
2010,09,14,09,11,13.20
2010,09,14,09,12,13.00
2010,09,14,09,13,12.80
2010,09,14,09,14,12.60
2010,09,14,09,15,12.40
2010,09,14,09,16,12.30
2010,09,14,09,17,12.20
2010,09,14,09,18,12.20
2010,09,14,09,19,12.20
2010,09,14,09,20,12.20
2010,09,14,09,21,12.10
2010,09,14,09,22,12.10
2010,09,14,09,23,12.20
2010,09,14,09,24,12.10
2010,09,14,09,25,12.00
2010,09,14,09,26,11.90
2010,09,14,09,27,11.80
2010,09,14,09,28,11.80
2010,09,14,09,29,11.70
2010,09,14,09,30,11.70
2010,09,14,09,31,11.70
2010,09,14,09,32,11.80
2010,09,14,09,33,11.90
2010,09,14,09,34,12.00
2010,09,14,09,35,12.20
2010,09,14,09,36,12.30
2010,09,14,09,37,12.30
2010,09,14,09,38,12.40
2010,09,14,09,39,12.50
2010,09,14,09,40,12.60
2010,09,14,09,41,12.70
2010,09,14,09,42,12.70
2010,09,14,09,43,12.80
2010,09,14,09,44,12.80
2010,09,14,09,45,12.90
2010,09,14,09,46,13.00
2010,09,14,09,47,13.10
2010,09,14,09,48,13.20
2010,09,14,09,49,13.30
2010,09,14,09,50,13.30
2010,09,14,09,51,13.30
2010,09,14,09,52,13.40
2010,09,14,09,53,13.50
2010,09,14,09,54,13.50
2010,09,14,09,55,13.50
2010,09,14,09,56,13.50
2010,09,14,09,57,13.50
2010,09,14,09,58,13.40
2010,09,14,09,59,13.50
2010,09,14,10,00,13.50
2010,09,14,10,01,13.40
2010,09,14,10,02,13.40
2010,09,14,10,03,13.30
2010,09,14,10,04,13.30
2010,09,14,10,05,13.40
2010,09,14,10,06,13.50
2010,09,14,10,07,13.50
2010,09,14,10,08,13.50
2010,09,14,10,09,13.50
2010,09,14,10,10,13.50
2010,09,14,10,11,13.50
2010,09,14,10,12,13.60
2010,09,14,10,13,13.60
2010,09,14,10,14,13.60
2010,09,14,10,15,13.60
2010,09,14,10,16,13.60
2010,09,14,10,17,13.60
2010,09,14,10,18,13.60
2010,09,14,10,19,13.70
2010,09,14,10,20,13.60
2010,09,14,10,21,13.60
2010,09,14,10,22,13.60
2010,09,14,10,23,13.60
2010,09,14,10,24,13.70
2010,09,14,10,25,13.70
2010,09,14,10,26,13.70
2010,09,14,10,27,13.80
2010,09,14,10,28,13.90
2010,09,14,10,29,13.90
2010,09,14,10,30,14.00
2010,09,14,10,31,14.20
2010,09,14,10,32,14.20
2010,09,14,10,33,14.30
2010,09,14,10,34,14.40
2010,09,14,10,35,14.50
2010,09,14,10,36,14.50
2010,09,14,10,37,14.60
2010,09,14,10,38,14.70
2010,09,14,10,39,14.80
2010,09,14,10,40,14.80
2010,09,14,10,41,14.90
2010,09,14,10,42,15.00
2010,09,14,10,43,15.00
2010,09,14,10,44,15.10
2010,09,14,10,45,15.20
2010,09,14,10,46,15.30
2010,09,14,10,47,15.30
2010,09,14,10,48,15.40
2010,09,14,10,49,15.50
2010,09,14,10,50,15.50
2010,09,14,10,51,15.60
2010,09,14,10,52,15.70
2010,09,14,10,53,15.80
2010,09,14,10,54,15.80
2010,09,14,10,55,15.80
2010,09,14,10,56,15.70
2010,09,14,10,57,15.70
2010,09,14,10,58,15.70
2010,09,14,10,59,15.70
2010,09,14,11,00,15.80
2010,09,14,11,01,15.80
2010,09,14,11,02,15.80
2010,09,14,11,03,15.80
2010,09,14,11,04,15.80
2010,09,14,11,05,15.90
2010,09,14,11,06,15.90
2010,09,14,11,07,15.80
2010,09,14,11,08,15.80
2010,09,14,11,09,15.80
2010,09,14,11,10,15.70
2010,09,14,11,11,15.70
2010,09,14,11,12,15.60
2010,09,14,11,13,15.60
2010,09,14,11,14,15.60
2010,09,14,11,15,15.60
2010,09,14,11,16,15.60
2010,09,14,11,17,15.50
2010,09,14,11,18,15.50
2010,09,14,11,19,15.50
2010,09,14,11,20,15.40
2010,09,14,11,21,15.30
2010,09,14,11,22,15.30
2010,09,14,11,23,15.30
2010,09,14,11,24,15.30
2010,09,14,11,25,15.30
2010,09,14,11,26,15.30
2010,09,14,11,27,15.30
2010,09,14,11,28,15.30
2010,09,14,11,29,15.40
2010,09,14,11,30,15.50
2010,09,14,11,31,15.40
2010,09,14,11,32,15.30
2010,09,14,11,33,15.10
2010,09,14,11,34,15.10
2010,09,14,11,35,15.10
2010,09,14,11,36,15.10
2010,09,14,11,37,15.00
2010,09,14,11,38,14.90
2010,09,14,11,39,14.90
2010,09,14,11,40,14.80
2010,09,14,11,41,14.80
2010,09,14,11,42,14.90
2010,09,14,11,43,15.00
2010,09,14,11,44,15.10
2010,09,14,11,45,15.10
2010,09,14,11,46,15.10
2010,09,14,11,47,15.10
2010,09,14,11,48,15.20
2010,09,14,11,49,15.10
2010,09,14,11,50,15.10
2010,09,14,11,51,15.00
2010,09,14,11,52,14.90
2010,09,14,11,53,15.00
2010,09,14,11,54,15.10
2010,09,14,11,55,15.10
2010,09,14,11,56,15.10
2010,09,14,11,57,15.10
2010,09,14,11,58,15.20
2010,09,14,11,59,15.30
2010,09,14,12,00,15.40
2010,09,14,12,01,15.40
2010,09,14,12,02,15.40
2010,09,14,12,03,15.50
2010,09,14,12,04,15.60
2010,09,14,12,05,15.60
2010,09,14,12,06,15.60
2010,09,14,12,07,15.60
2010,09,14,12,08,15.50
2010,09,14,12,09,15.50
2010,09,14,12,10,15.40
2010,09,14,12,11,15.40
2010,09,14,12,12,15.30
2010,09,14,12,13,15.30
2010,09,14,12,14,15.20
2010,09,14,12,15,15.10
2010,09,14,12,16,15.10
2010,09,14,12,17,15.10
2010,09,14,12,18,15.10
2010,09,14,12,19,15.00
2010,09,14,12,20,15.10
2010,09,14,12,21,15.00
2010,09,14,12,22,15.00
2010,09,14,12,23,15.00
2010,09,14,12,24,15.10
2010,09,14,12,25,15.10
2010,09,14,12,26,15.20
2010,09,14,12,27,15.20
2010,09,14,12,28,15.30
2010,09,14,12,29,15.20
2010,09,14,12,30,15.10
2010,09,14,12,31,15.10
2010,09,14,12,32,15.10
2010,09,14,12,33,15.10
2010,09,14,12,34,15.20
2010,09,14,12,35,15.20
2010,09,14,12,36,15.30
2010,09,14,12,37,15.20
2010,09,14,12,38,15.20
2010,09,14,12,39,15.10
2010,09,14,12,40,15.10
2010,09,14,12,41,15.10
2010,09,14,12,42,15.20
2010,09,14,12,43,15.20
2010,09,14,12,44,15.20
2010,09,14,12,45,15.20
2010,09,14,12,46,15.30
2010,09,14,12,47,15.40
2010,09,14,12,48,15.50
2010,09,14,12,49,15.50
2010,09,14,12,50,15.60
2010,09,14,12,51,15.50
2010,09,14,12,52,15.60
2010,09,14,12,53,15.70
2010,09,14,12,54,15.70
2010,09,14,12,55,15.70
2010,09,14,12,56,15.70
2010,09,14,12,57,15.70
2010,09,14,12,58,15.70
2010,09,14,12,59,15.70
2010,09,14,13,00,15.60
2010,09,14,13,01,15.70
2010,09,14,13,02,15.60
2010,09,14,13,03,15.60
2010,09,14,13,04,15.50
2010,09,14,13,05,15.40
2010,09,14,13,06,15.50
2010,09,14,13,07,15.40
2010,09,14,13,08,15.30
2010,09,14,13,09,15.30
2010,09,14,13,10,15.30
2010,09,14,13,11,15.30
2010,09,14,13,12,15.30
2010,09,14,13,13,15.30
2010,09,14,13,14,15.30
2010,09,14,13,15,15.30
2010,09,14,13,16,15.30
2010,09,14,13,17,15.40
2010,09,14,13,18,15.30
2010,09,14,13,19,15.30
2010,09,14,13,20,15.30
2010,09,14,13,21,15.30
2010,09,14,13,22,15.40
2010,09,14,13,23,15.40
2010,09,14,13,24,15.50
2010,09,14,13,25,15.50
2010,09,14,13,26,15.40
2010,09,14,13,27,15.50
2010,09,14,13,28,15.40
2010,09,14,13,29,15.30
2010,09,14,13,30,15.20
2010,09,14,13,31,15.20
2010,09,14,13,32,15.20
2010,09,14,13,33,15.20
2010,09,14,13,34,15.20
2010,09,14,13,35,15.20
2010,09,14,13,36,15.20
2010,09,14,13,37,15.20
2010,09,14,13,38,15.20
2010,09,14,13,39,15.30
2010,09,14,13,40,15.40
2010,09,14,13,41,15.50
2010,09,14,13,42,15.50
2010,09,14,13,43,15.60
2010,09,14,13,44,15.70
2010,09,14,13,45,15.80
2010,09,14,13,46,15.80
2010,09,14,13,47,15.90
2010,09,14,13,48,16.00
2010,09,14,13,49,16.10
2010,09,14,13,50,16.10
2010,09,14,13,51,16.10
2010,09,14,13,52,16.20
2010,09,14,13,53,16.20
2010,09,14,13,54,16.30
2010,09,14,13,55,16.40
2010,09,14,13,56,16.50
2010,09,14,13,57,16.60
2010,09,14,13,58,16.70
2010,09,14,13,59,16.70
2010,09,14,14,00,16.80
2010,09,14,14,01,17.00
2010,09,14,14,02,17.10
2010,09,14,14,03,17.30
2010,09,14,14,04,17.30
2010,09,14,14,05,17.50
2010,09,14,14,06,17.50
2010,09,14,14,07,17.70
2010,09,14,14,08,17.80
2010,09,14,14,09,18.00
2010,09,14,14,10,18.10
2010,09,14,14,11,18.20
2010,09,14,14,12,18.20
2010,09,14,14,13,18.10
2010,09,14,14,14,17.90
2010,09,14,14,15,17.80
2010,09,14,14,16,17.70
2010,09,14,14,17,17.70
2010,09,14,14,18,17.70
2010,09,14,14,19,17.50
2010,09,14,14,20,17.30
2010,09,14,14,21,17.20
2010,09,14,14,22,17.20
2010,09,14,14,23,17.20
2010,09,14,14,24,17.20
2010,09,14,14,25,17.30
2010,09,14,14,26,17.30
2010,09,14,14,27,17.30
2010,09,14,14,28,17.20
2010,09,14,14,29,17.30
2010,09,14,14,30,17.40
2010,09,14,14,31,17.40
2010,09,14,14,32,17.40
2010,09,14,14,33,17.40
2010,09,14,14,34,17.50
2010,09,14,14,35,17.50
2010,09,14,14,36,17.60
2010,09,14,14,37,17.70
2010,09,14,14,38,17.70
2010,09,14,14,39,17.70
2010,09,14,14,40,17.80
2010,09,14,14,41,17.90
2010,09,14,14,42,17.90
2010,09,14,14,43,17.90
2010,09,14,14,44,17.80
2010,09,14,14,45,17.90
2010,09,14,14,46,17.80
2010,09,14,14,47,17.80
2010,09,14,14,48,17.80
2010,09,14,14,49,17.80
2010,09,14,14,50,17.90
2010,09,14,14,51,17.90
2010,09,14,14,52,17.90
2010,09,14,14,53,17.80
2010,09,14,14,54,17.70
2010,09,14,14,55,17.60
2010,09,14,14,56,17.60
2010,09,14,14,57,17.60
2010,09,14,14,58,17.50
2010,09,14,14,59,17.50
2010,09,14,15,00,17.70
2010,09,14,15,01,17.70
2010,09,14,15,02,17.70
2010,09,14,15,03,17.70
2010,09,14,15,04,17.60
2010,09,14,15,05,17.50
2010,09,14,15,06,17.40
2010,09,14,15,07,17.30
2010,09,14,15,08,17.30
2010,09,14,15,09,17.40
2010,09,14,15,10,17.40
2010,09,14,15,11,17.40
2010,09,14,15,12,17.40
2010,09,14,15,13,17.40
2010,09,14,15,14,17.40
2010,09,14,15,15,17.40
2010,09,14,15,16,17.40
2010,09,14,15,17,17.40
2010,09,14,15,18,17.40
2010,09,14,15,19,17.40
2010,09,14,15,20,17.30
2010,09,14,15,21,17.30
2010,09,14,15,22,17.30
2010,09,14,15,23,17.30
2010,09,14,15,24,17.30
2010,09,14,15,25,17.40
2010,09,14,15,26,17.50
2010,09,14,15,27,17.50
2010,09,14,15,28,17.60
2010,09,14,15,29,17.60
2010,09,14,15,30,17.70
2010,09,14,15,31,17.60
2010,09,14,15,32,17.50
2010,09,14,15,33,17.40
2010,09,14,15,34,17.30
2010,09,14,15,35,17.30
2010,09,14,15,36,17.30
2010,09,14,15,37,17.30
2010,09,14,15,38,17.30
2010,09,14,15,39,17.30
2010,09,14,15,40,17.30
2010,09,14,15,41,17.30
2010,09,14,15,42,17.30
2010,09,14,15,43,17.30
2010,09,14,15,44,17.30
2010,09,14,15,45,17.30
2010,09,14,15,46,17.30
2010,09,14,15,47,17.30
2010,09,14,15,48,17.30
2010,09,14,15,49,17.30
2010,09,14,15,50,17.30
2010,09,14,15,51,17.30
2010,09,14,15,52,17.30
2010,09,14,15,53,17.30
2010,09,14,15,54,17.40
2010,09,14,15,55,17.30
2010,09,14,15,56,17.30
2010,09,14,15,57,17.20
2010,09,14,15,58,17.20
2010,09,14,15,59,17.10
2010,09,14,16,00,17.10
2010,09,14,16,01,17.10
2010,09,14,16,02,17.00
2010,09,14,16,03,17.10
2010,09,14,16,04,17.10
2010,09,14,16,05,17.10
2010,09,14,16,06,17.10
2010,09,14,16,07,17.00
2010,09,14,16,08,17.00
2010,09,14,16,09,17.00
2010,09,14,16,10,17.00
2010,09,14,16,11,17.00
2010,09,14,16,12,17.10
2010,09,14,16,13,17.20
2010,09,14,16,14,17.30
2010,09,14,16,15,17.40
2010,09,14,16,16,17.50
2010,09,14,16,17,17.50
2010,09,14,16,18,17.50
2010,09,14,16,19,17.40
2010,09,14,16,20,17.30
2010,09,14,16,21,17.30
2010,09,14,16,22,17.30
2010,09,14,16,23,17.30
2010,09,14,16,24,17.30
2010,09,14,16,25,17.30
2010,09,14,16,26,17.30
2010,09,14,16,27,17.30
2010,09,14,16,28,17.30
2010,09,14,16,29,17.30
2010,09,14,16,30,17.30
2010,09,14,16,31,17.30
2010,09,14,16,32,17.30
2010,09,14,16,33,17.40
2010,09,14,16,34,17.40
2010,09,14,16,35,17.30
2010,09,14,16,36,17.40
2010,09,14,16,37,17.40
2010,09,14,16,38,17.40
2010,09,14,16,39,17.40
2010,09,14,16,40,17.30
2010,09,14,16,41,17.30
2010,09,14,16,42,17.30
2010,09,14,16,43,17.30
2010,09,14,16,44,17.30
2010,09,14,16,45,17.30
2010,09,14,16,46,17.40
2010,09,14,16,47,17.50
2010,09,14,16,48,17.50
2010,09,14,16,49,17.60
2010,09,14,16,50,17.70
2010,09,14,16,51,17.70
2010,09,14,16,52,17.70
2010,09,14,16,53,17.70
2010,09,14,16,54,17.70
2010,09,14,16,55,17.70
2010,09,14,16,56,17.60
2010,09,14,16,57,17.60
2010,09,14,16,58,17.60
2010,09,14,16,59,17.50
2010,09,14,17,00,17.60
2010,09,14,17,01,17.60
2010,09,14,17,02,17.70
2010,09,14,17,03,17.70
2010,09,14,17,04,17.80
2010,09,14,17,05,17.80
2010,09,14,17,06,17.90
2010,09,14,17,07,17.90
2010,09,14,17,08,17.90
2010,09,14,17,09,17.90
2010,09,14,17,10,17.90
2010,09,14,17,11,17.90
2010,09,14,17,12,18.00
2010,09,14,17,13,18.10
2010,09,14,17,14,18.10
2010,09,14,17,15,18.20
2010,09,14,17,16,18.30
2010,09,14,17,17,18.30
2010,09,14,17,18,18.30
2010,09,14,17,19,18.30
2010,09,14,17,20,18.30
2010,09,14,17,21,18.30
2010,09,14,17,22,18.30
2010,09,14,17,23,18.30
2010,09,14,17,24,18.30
2010,09,14,17,25,18.30
2010,09,14,17,26,18.30